Location: York
(31.8935°S, 116.7682°E)
Time: 04:59:41
(UTC+08:00)

Envisat - Pass Details

Date: 06 December 2021
Orbit: 764 x 766 km, 98.2° (Epoch: 23 January)

Event Time Altitude Azimuth Distance (km) Brightness Sun altitude
Rises 04:17:48 0° 19° (NNE) 3,216 6.1 -8.5°
Reaches altitude 10° 04:20:05 10° 20° (NNE) 2,298 5.4 -8.1°
Maximum altitude 04:25:08 73° 104° (ESE) 808 3.3 -7.2°
Drops below altitude 10° 04:30:15 10° 188° (S) 2,327 5.8 -6.3°
Sets 04:32:35 0° 189° (S) 3,260 6.6 -5.9°
